QZS-4 (MICHIBIKI-4)

Last updated on June 27, 2019, 3:44 a.m. UTC

1 42965U 17062A   19176.87870910 -.00000322  00000-0  00000+0 0  9993
2 42965  40.7530  16.3312 0746744 271.6396  79.2284  1.00259346  6265
UTC
Height (km)
Latitude
Longitude
Inclination
Orbital Period
UTC large
Height (km)
Speed (km/s)
/
Latitude / Longitude
Inclination (degrees)
Orbital Period (minutes)
Azimuth
Elevation
Range (km)
Doppler Factor
iOS Compass Heading
iOS Angle

Next 30 passes for location: Hong Kong

Rise time Rise Azimuth (degrees) Set time Set Azimuth (degrees) Duration Max altitude (degrees)

No matching passes for this satellites